GW4098 Weather Reports


time (UTC)temp
C
wind
direction
speed
KPH
gust
KPH
rain 1hr
cm
rain 24hr
cm
rain mn
cm
humidity
%
barometer
mb
20260503013151 18 19 4.8 9.7 0.00 0.00 0.00 31 1007.5
20260503011555 18 360 6.4 12.9 0.00 0.00 0.00 30 1007.6
20260503010050 18 360 6.4 12.9 0.00 0.00 0.00 30 1007.5
20260503004548 18 5 6.4 9.7 0.00 0.00 0.00 30 1007.7
20260503003049 18 317 1.6 12.9 0.00 0.00 0.00 30 1007.8
20260503001556 19 331 6.4 16.1 0.00 0.00 0.00 29 1007.9
20260503000044 20 279 6.4 19.3 0.00 0.00 0.00 29 1008.1
20260502234545 19 26 4.8 19.3 0.00 0.00 0.00 29 1008.3
20260502233045 19 23 6.4 16.1 0.00 0.00 0.00 30 1008.4
20260502231541 19 284 4.8 14.5 0.00 0.00 0.00 31 1008.6
20260502230040 18 346 1.6 9.7 0.00 0.00 0.00 32 1008.7
20260502224540 18 329 6.4 14.5 0.00 0.00 0.00 32 1008.9
20260502223039 18 321 6.4 16.1 0.00 0.00 0.00 32 1008.9
20260502221542 19 30 4.8 14.5 0.00 0.00 0.00 32 1009.3
20260502220038 18 119 9.7 16.1 0.00 0.00 0.00 33 1009.4
20260502214537 18 17 9.7 17.7 0.00 0.00 0.00 33 1009.6
20260502213036 18 27 8.0 16.1 0.00 0.00 0.00 33 1009.8
20260502211534 18 87 1.6 16.1 0.00 0.00 0.00 35 1009.9
20260502210032 18 355 8.0 14.5 0.00 0.00 0.00 35 1010.2
20260502204533 17 355 4.8 20.9 0.00 0.00 0.00 36 1010.2
20260502203032 17 337 17.7 27.4 0.00 0.00 0.00 36 1010.3
20260502201535 18 12 16.1 25.7 0.00 0.00 0.00 35 1010.4
20260502200030 17 25 9.7 20.9 0.00 0.00 0.00 35 1010.5
20260502194529 18 61 12.9 20.9 0.00 0.00 0.00 34 1010.5
20260502193028 18 355 11.3 20.9 0.00 0.00 0.00 35 1010.7
20260502191526 17 50 6.4 24.1 0.00 0.00 0.00 34 1010.8
20260502190029 17 43 11.3 17.7 0.00 0.00 0.00 35 1010.8
20260502184533 17 126 6.4 14.5 0.00 0.00 0.00 35 1011.1
20260502183026 17 69 8.0 17.7 0.00 0.00 0.00 36 1011.1
20260502181518 17 19 9.7 19.3 0.00 0.00 0.00 36 1011.3
20260502163004 16 63 17.7 30.6 0.00 0.00 0.00 39 1011.9
20260502161624 15 30 19.3 30.6 0.00 0.00 0.00 39 1011.7
20260502151604 13 64 12.9 20.9 0.00 0.00 0.00 42 1011.9
20260502054544 8 275 11.3 12.9 0.00 0.00 0.00 36 1008.0
20260502053040 9 249 8.0 11.3 0.00 0.00 0.00 33 1007.9
20260502051545 9 249 6.4 11.3 0.00 0.00 0.00 33 1007.9
20260502050041 9 249 4.8 8.0 0.00 0.00 0.00 34 1007.8
20260502044541 10 249 6.4 11.3 0.00 0.00 0.00 31 1007.8
20260502043039 11 249 3.2 6.4 0.00 0.00 0.00 33 1007.7
20260502041600 11 249 4.8 8.0 0.00 0.00 0.00 32 1007.7
20260502040042 11 249 4.8 8.0 0.00 0.00 0.00 32 1007.6
20260502034538 12 213 4.8 8.0 0.00 0.00 0.00 32 1007.5
20260502033050 12 242 3.2 6.4 0.00 0.00 0.00 30 1007.4
20260502031537 13 243 4.8 8.0 0.00 0.00 0.00 27 1007.1
20260502030036 15 288 1.6 3.2 0.00 0.00 0.00 29 1007.0
20260502024537 16 288 3.2 4.8 0.00 0.00 0.00 24 1006.8
20260502023035 18 288 1.6 4.8 0.00 0.00 0.00 24 1006.8
20260502021533 19 288 4.8 8.0 0.00 0.00 0.00 19 1006.6
20260502020033 20 288 6.4 12.9 0.00 0.00 0.00 19 1006.6
20260502014533 21 275 8.0 11.3 0.00 0.00 0.00 18 1006.6